Regional Weather Roundup
Issued by NWS Sioux Falls, SD

Home | Current Version | Previous Version | Graphics & Text | Print | Product List | Glossary On
Versions: 1 2 3 4 5 6 7 8 9 10 11 12 13 14 15 16 17 18 19 20 21 22 23 24 25 26 27 28 29 30 31 32 33 34 35 36 37 38 39 40 41 42 43 44 45 46 47 48 49 50
000
ASUS43 KFSD 290402
RWRFSD

WEATHER ROUNDUP FOR SE SOUTH DAKOTA/SW MINNESOTA/NW IOWA
NATIONAL WEATHER SERVICE SIOUX FALLS SD
1000 PM CST SUN DEC 28 2014

NOTE: "FAIR" INDICATES FEW OR NO CLOUDS BELOW 12,000 FEET WITH NO
SIGNIFICANT WEATHER AND OR OBSTRUCTIONS TO VISIBILITY.


SDZ038>040-050-052>070-290500-
SOUTHEAST SOUTH DAKOTA

CITY           SKY/WX    TMP DP  RH WIND       PRES   REMARKS
CHAMBERLAIN    NOT AVBL
HURON          LGT SNOW  13   9  84 NE10      30.32R FOG     WCI   0
MADISON        FLURRIES  12  12 100 NE12      30.26S WCI  -2
MITCHELL       LGT SNOW  19  16  88 NE12      30.29R FOG     WCI   7
SIOUX FALLS    LGT SNOW  17  13  84 NE14      30.26R FOG     WCI   3
WINNER         LGT SNOW  18  14  84 E12       30.21R WCI   5
YANKTON        CLOUDY    19  18  93 NE8       30.26R WCI   9
$$

MNZ071-072-080-081-089-090-097-098-290500-
SOUTHWEST MINNESOTA

CITY           SKY/WX    TMP DP  RH WIND       PRES   REMARKS
FAIRMONT       CLOUDY    18  12  79 MISG      30.28R
JACKSON        CLOUDY    19  18  93 N6        30.26S WCI  11
LUVERNE        CLOUDY    19  14  79 NE12      30.27R WCI   7
MARSHALL       CLOUDY    12   3  67 N12       30.32R WCI  -2
MONTEVIDEO     CLOUDY    12   9  85 N7        30.36R WCI   2
PIPESTONE      CLOUDY    12   9  85 NE12      30.26R WCI  -2
REDWOOD FALLS  CLOUDY    17   7  64 NE5       30.33R WCI  10
TRACY          CLOUDY    15  11  85 NW9       30.31R WCI   3
WINDOM         CLOUDY    19  18  93 CALM      30.28R
WORTHINGTON    CLOUDY    18 -27  12 N9        30.26R WCI   6
$$

IAZ001>003-012>014-020>022-031-032-NEZ013-014-SDZ071-290500-
NORTHWEST IOWA

CITY           SKY/WX    TMP DP  RH WIND       PRES   REMARKS
DENISON        CLOUDY    21  19  93 NE7       30.19S WCI  13
ESTHERVILLE    CLOUDY    17  15  92 N9        30.26R FOG     WCI   6
SIOUX CITY     CLOUDY    23  17  78 NE9       30.23R WCI  13
SPENCER        CLOUDY    19  15  84 NE10      30.26R WCI   7
$$

ABBREVIATIONS USED IN REMARKS
   TC - TEMPERATURE IN CELSIUS
  WCI - WIND CHILL INDEX
   HX - HEAT INDEX
  VSB - VISIBILITY




USA.gov is the U.S. government's official web portal to all federal, state and local government web resources and services.